Location: Newark
(46.0333°N, 5.8167°E)
Time: 06:14:14
(UTC+00:00)

Envisat - Pass Details

Date: 21 September 2019
Orbit: 764 x 766 km, 98.1° (Epoch: 21 October)

Event Time Altitude Azimuth Distance (km) Brightness Sun altitude
Rises 18:45:55 0° 201° (SSW) 3,220 6.3 -12.6°
Reaches altitude 10° 18:48:39 10° 215° (SW) 2,299 5.7 -13.1°
Maximum altitude 18:52:40 23° 268° (W) 1,576 5.5 -13.8°
Drops below altitude 10° 18:56:42 10° 320° (NW) 2,313 6.4 -14.4°
Sets 18:59:29 0° 335° (NNW) 3,244 6.9 -14.9°
